Retour au catalogue

ATLAS 5 CENTAUR DEB

LostHEO
NORAD 46861·DEBRIS·🇺🇸 United States

Lancé Oct 17, 2018 depuis Cape Canaveral Space Force Station

Loading…

Prochains Passages (prochaines 24 heures)

TLE

PériméSource: Space-Track

Époque: Jan 16, 2024, 09:31 UTC

1 46861U 18079DS  24016.39672487 -.00000066  00000-0  00000+0 0  9991
2 46861  11.4014 118.8939 4839548 154.7231 239.9369  1.78305214 21208

Suivez ATLAS 5 CENTAUR DEB en temps réel avec AllMySat

Download on the App Store